Temperature
16 15 15 15 15 14 14 14 14 14 14 14 14 14 13 13 13 13 13 13 13 13 13 13 13 13 13 13 13 13 13 13 14 14 14 14 15 15 15 15 15 15 16
16 15 15 15 15 15 14 14 14 14 14 14 14 14 14 13 13 13 13 13 13 13 13 13 13 13 13 13 13 13 13 13 13 14 14 14 14 14 14 15 15 15 15
16 15 15 15 15 15 15 14 14 14 14 14 14 14 14 13 13 13 13 13 13 13 13 13 13 13 12 12 13 13 13 13 13 13 13 14 14 14 14 14 14 14 15
16 16 15 15 15 15 15 15 14 14 14 14 14 14 14 13 13 13 13 13 13 13 13 13 13 13 13 12 12 12 13 13 13 13 13 13 13 13 13 14 14 14 14
16 16 16 16 15 15 15 15 14 14 14 14 14 14 13 13 13 13 13 13 13 13 13 13 13 13 13 13 13 13 13 13 13 13 13 13 13 13 13 13 13 14 14
17 16 16 16 15 15 15 15 14 14 14 14 14 13 13 13 13 13 13 13 13 13 13 13 13 13 13 13 13 13 13 13 12 12 12 12 13 13 13 13 13 13 13
17 16 16 16 15 15 15 15 14 14 14 14 13 13 13 13 13 13 13 13 13 13 13 13 13 13 13 13 13 13 13 12 12 12 12 12 12 12 12 13 13 13 13
17 17 16 16 15 15 15 15 14 14 14 13 13 13 13 13 13 13 13 13 13 13 13 13 13 12 13 13 12 12 12 12 12 12 12 12 12 12 12 12 12 12 13
17 17 16 16 16 15 15 15 14 14 14 13 13 13 13 13 13 13 13 13 13 13 12 12 12 12 12 12 12 12 12 12 12 12 12 12 12 12 12 12 12 12 12
17 17 16 16 16 15 15 15 14 14 14 13 13 13 12 12 12 12 12 12 12 12 12 12 12 12 12 12 12 12 12 12 12 12 12 12 12 12 12 12 12 12 12
17 17 17 16 16 16 15 15 14 14 13 13 12 12 12 12 12 12 12 12 12 12 12 12 12 12 12 12 12 11 11 11 11 11 11 11 11 12 11 11 11 11 11
18 17 17 16 16 15 15 14 14 13 13 12 12 12 12 12 12 12 12 12 12 11 11 11 11 11 11 11 11 11 11 11 11 11 11 11 11 11 11 11 11 11 11
18 17 16 16 15 15 15 14 14 13 13 12 12 12 11 11 11 11 11 11 11 11 11 10 10 10 10 11 11 10 10 10 10 10 10 10 10 10 10 11 11 11 11
18 17 16 16 15 15 14 14 13 13 12 12 12 11 11 11 11 11 11 11 10 10 10 10 10 10 10 9 9 10 10 9 9 9 9 9 9 10 10 10 10 10 10
17 17 16 15 15 15 14 14 13 13 13 12 12 11 11 11 11 11 11 11 10 10 10 9 9 9 9 9 9 9 9 9 9 9 9 9 9 9 9 9 9 9 9
16 16 15 15 15 15 14 14 13 13 12 12 12 11 11 11 11 11 11 10 10 10 9 9 9 8 8 8 8 8 8 8 8 8 8 8 8 8 8 8 8 7 7
16 16 16 15 15 14 14 14 13 12 12 12 11 11 11 11 10 10 10 10 9 9 9 8 8 8 8 7 7 7 7 7 7 7 7 7 7 7 7 6 6 6 6
16 16 16 15 15 14 14 13 13 13 12 11 11 10 10 10 10 10 9 9 9 8 8 8 7 7 7 7 7 7 6 6 6 6 6 6 6 6 5 5 5 5 5
16 16 15 15 14 14 13 13 12 12 11 11 10 10 9 9 9 9 8 8 8 8 7 7 7 7 7 6 6 6 6 6 5 5 5 5 5 5 5 4 4 4 4
15 15 15 15 14 13 12 12 11 11 10 10 10 9 9 9 8 8 8 7 7 7 7 7 6 6 6 6 6 5 5 5 5 4 4 4 4 4 4 4 3 3 3
15 15 14 14 13 13 12 12 11 10 10 9 9 9 8 8 8 7 7 7 7 6 6 6 6 6 5 5 5 5 4 4 4 4 3 3 3 3 3 3 3 2 2
14 14 14 13 13 12 12 11 10 10 9 9 8 8 8 7 7 7 7 6 6 6 6 5 5 5 5 4 4 4 4 3 3 3 3 3 3 2 2 2 2 2 2
13 13 13 12 12 11 11 10 10 9 9 9 8 8 7 7 7 6 6 6 5 5 5 5 5 4 4 4 3 3 3 3 2 2 2 2 2 2 2 1 1 1 1
12 12 12 11 11 11 10 10 9 9 8 8 8 7 7 6 6 6 5 5 5 5 4 4 4 4 3 3 3 3 2 2 2 2 2 1 1 1 1 1 0 0 0
11 10 10 10 10 10 10 9 9 8 8 8 7 7 6 6 6 5 5 5 4 4 4 4 3 3 3 3 2 2 2 2 2 2 1 1 1 1 1 0 0 -0 -0
9 9 9 9 9 9 9 8 8 8 7 7 7 6 6 6 5 5 5 4 4 4 3 3 3 3 2 2 2 2 2 2 2 2 1 1 1 1 0 -0 -0 -1 -1
Wind_Speed
7 5 4 4 3 3 2 2 2 3 2 2 2 2 1 2 1 1 1 2 2 2 2 1 2 1 1 1 2 1 1 1 2 3 2 1 1 1 1 2 3 6 9
6 5 5 5 4 4 3 3 3 3 3 3 2 1 1 1 1 1 1 2 2 2 2 2 2 1 1 1 1 2 2 2 1 2 2 2 2 1 1 2 3 4 5
7 6 5 6 5 4 3 2 2 2 2 3 2 1 1 0 1 1 2 2 2 1 1 1 1 1 1 1 1 1 2 2 1 1 2 2 2 2 2 2 3 3 5
8 7 6 5 4 3 2 1 2 1 2 3 2 1 0 0 1 2 2 2 2 2 1 1 0 1 1 2 1 2 2 2 2 2 2 2 2 2 1 2 3 2 3
8 7 6 5 4 3 3 2 2 1 3 2 2 2 2 1 2 3 3 4 3 3 2 1 1 3 2 1 1 2 3 2 2 2 2 2 2 1 2 2 3 3 4
9 8 7 5 5 4 3 2 1 1 2 2 3 2 2 2 3 3 3 4 5 4 2 2 1 3 3 2 2 3 3 2 2 2 2 2 3 2 2 2 2 2 3
9 8 7 6 5 4 3 3 2 3 3 2 2 2 1 2 3 3 4 4 5 4 3 2 2 2 3 0 2 4 4 5 5 3 2 4 3 2 2 3 3 3 4
9 8 8 7 6 5 4 3 2 2 1 1 1 1 1 2 2 3 4 4 5 4 2 2 1 3 3 3 2 2 2 2 3 3 2 3 2 2 2 3 3 4 4
9 8 8 8 7 6 5 4 3 2 1 1 1 1 0 2 2 3 3 4 3 2 1 2 3 4 5 5 3 4 4 4 3 2 3 4 5 5 3 2 3 2 3
9 8 8 8 7 7 6 4 4 3 3 2 1 1 1 3 4 4 4 2 3 2 2 3 6 5 6 6 3 3 4 4 5 4 4 4 3 3 4 2 2 2 2
9 8 8 8 8 6 5 4 4 3 3 3 2 2 3 4 5 5 5 3 3 4 3 3 4 6 6 5 4 2 3 5 5 4 3 3 3 3 3 2 2 2 2
10 9 8 8 7 7 6 4 3 3 4 3 3 2 3 5 5 3 3 3 4 3 3 3 3 5 5 4 3 3 5 6 3 3 3 3 3 3 4 4 4 3 3
10 10 8 8 6 7 6 5 4 3 3 3 3 3 3 4 4 3 2 2 3 2 2 3 2 4 4 2 2 4 4 3 3 3 3 3 3 4 4 4 4 4 5
11 10 9 8 7 6 5 4 3 2 2 2 2 3 3 4 4 3 2 2 2 2 1 0 1 2 3 3 2 2 2 3 3 2 3 3 3 4 4 4 4 4 4
11 10 9 8 8 7 5 3 4 4 4 3 3 3 3 4 3 4 3 2 2 3 3 1 1 2 3 3 3 3 3 3 3 3 3 3 4 4 4 4 4 4 4
11 10 8 8 7 8 8 6 8 7 9 9 8 6 5 6 6 5 4 3 4 5 3 1 2 2 3 3 2 2 3 3 3 3 3 3 3 4 4 4 4 4 4
10 10 9 9 9 9 9 8 6 5 6 7 7 8 7 6 5 4 2 3 4 3 2 1 2 3 3 3 3 3 3 3 3 3 3 3 4 4 4 4 4 4 4
10 11 11 9 9 9 9 9 8 8 6 4 3 6 7 7 5 3 1 1 1 0 1 2 2 2 2 3 3 3 3 3 3 3 3 3 4 4 4 5 5 5 5
9 8 9 9 8 8 8 8 8 8 8 7 5 4 6 6 5 4 2 1 1 2 2 2 2 2 2 2 3 3 3 3 3 3 3 4 4 4 4 5 5 7 7
9 12 12 9 9 8 8 8 8 8 8 8 8 7 6 5 3 3 2 2 2 2 2 2 2 2 2 2 2 2 2 2 3 3 3 4 4 4 5 6 6 6 6
8 11 14 11 9 8 8 8 8 7 7 7 6 7 9 5 4 4 3 3 2 2 2 2 2 1 1 1 2 2 3 2 3 3 4 4 5 5 5 6 6 7 7
9 9 9 9 8 8 8 7 7 7 7 8 6 6 8 5 4 4 3 3 3 3 3 2 1 1 1 1 1 2 3 3 3 4 5 5 5 6 6 6 7 7 8
9 10 9 8 8 10 9 8 7 7 8 8 8 7 6 4 4 4 4 3 3 3 2 2 1 1 1 1 2 2 2 2 3 4 5 5 6 7 7 8 10 11 10
9 11 10 9 8 9 9 8 8 8 8 8 7 7 6 5 5 5 4 4 3 3 2 2 1 0 1 1 1 2 2 3 5 5 6 6 8 8 8 9 10 11 11
8 9 9 9 9 9 9 8 8 8 8 8 7 7 6 6 5 5 4 4 3 2 2 1 0 0 1 2 2 2 3 4 5 6 7 6 8 10 10 11 11 12 12
6 7 7 7 8 8 8 8 8 8 7 7 7 6 6 5 5 4 4 4 3 2 1 1 0 1 2 2 2 2 4 5 7 10 10 7 9 10 10 10 13 13 14
Wind_Direction
183 187 174 179 193 214 206 211 241 263 272 276 294 314 4 18 36 85 313 320 320 322 327 335 332 316 347 335 338 318 281 254 260 290 307 322 273 272 224 245 242 217 217
180 180 183 182 192 216 209 208 227 237 252 264 266 287 354 19 358 358 315 324 324 329 326 328 310 326 3 303 305 302 287 262 242 280 303 315 315 299 253 249 258 243 229
174 185 193 197 198 201 208 204 234 250 257 259 258 258 264 288 324 319 304 292 285 286 309 327 328 352 333 312 299 307 304 303 283 280 282 285 290 290 293 281 274 263 256
172 187 204 207 182 179 183 193 259 282 297 296 303 298 279 301 2 338 337 330 314 297 287 270 235 36 18 2 353 350 341 336 323 297 285 289 285 284 283 278 286 273 264
172 184 198 201 171 166 167 202 243 276 286 301 322 329 341 0 31 21 347 329 319 310 309 293 153 147 128 106 16 353 353 342 321 304 298 306 294 299 276 261 274 283 271
175 180 184 184 165 167 180 198 212 251 293 321 322 321 335 20 52 33 358 327 318 314 314 313 194 172 171 190 234 256 257 277 294 300 303 303 294 286 284 275 272 287 282
176 173 169 171 166 172 192 193 200 230 242 255 291 319 16 65 55 24 350 313 296 301 314 324 349 55 94 68 262 265 265 259 248 249 274 287 296 305 316 310 297 277 264
174 169 164 167 169 173 184 187 207 239 216 184 278 319 26 58 37 3 335 297 282 284 295 323 20 57 43 24 351 329 307 291 257 245 246 276 296 317 308 285 278 279 279
172 170 165 165 167 172 181 187 193 207 215 205 227 247 125 70 41 13 345 292 282 283 359 41 46 66 43 37 20 350 344 337 324 290 273 281 292 293 288 305 300 283 285
169 168 162 160 163 170 175 179 180 180 190 207 204 195 112 93 77 48 16 323 328 347 42 69 64 67 50 42 24 4 350 335 336 339 324 311 304 305 299 264 278 285 289
158 157 158 156 158 160 165 172 172 171 184 201 195 163 126 109 104 72 46 20 358 355 21 53 55 48 43 36 28 12 352 337 333 338 334 333 340 348 351 331 314 296 284
151 156 159 156 162 159 155 165 169 174 189 198 193 173 143 126 117 103 73 46 17 15 23 47 47 31 30 26 21 9 1 355 342 346 350 355 360 355 347 340 333 328 303
152 157 158 154 152 150 155 165 177 189 190 188 171 155 131 114 109 96 89 41 27 43 50 50 32 14 6 18 30 18 12 8 2 7 2 354 345 338 343 339 334 328 314
158 161 162 162 158 151 146 153 155 165 171 170 141 134 122 102 83 51 17 16 13 24 358 305 334 358 12 18 32 28 30 40 30 11 354 342 344 353 354 347 342 337 332
167 168 171 167 156 144 124 96 111 80 92 104 87 81 93 107 102 91 71 38 11 5 344 360 40 39 39 37 34 32 27 25 18 4 6 358 353 351 344 344 342 340 337
178 178 173 162 153 146 136 109 72 101 97 92 94 104 91 107 124 105 79 42 13 3 17 38 50 46 38 31 27 16 14 11 5 7 6 358 348 342 336 336 337 335 328
184 176 168 164 161 159 156 152 144 112 93 97 106 115 128 135 130 121 84 9 342 354 40 49 63 55 38 26 24 22 12 9 9 9 3 353 346 339 335 331 329 326 320
186 178 168 166 165 168 168 167 163 161 160 153 143 147 148 156 163 173 167 29 344 64 91 70 65 55 40 28 20 12 4 359 2 354 351 347 341 335 331 328 326 325 320
183 175 168 164 164 168 166 165 164 166 162 156 151 162 174 171 179 201 197 161 131 95 85 75 70 57 39 29 18 6 358 356 356 351 347 342 337 334 329 326 323 322 319
181 174 165 163 165 166 166 164 164 165 161 160 164 165 170 175 179 178 172 155 136 121 106 92 81 70 43 26 7 352 348 352 352 350 344 340 335 330 323 320 318 315 310
172 171 167 166 170 170 168 168 165 162 160 158 153 151 157 166 166 159 158 156 148 135 121 107 91 72 52 22 356 344 345 346 350 346 341 335 329 323 318 312 308 306 304
169 169 172 173 170 168 166 164 160 157 155 147 137 145 155 160 160 155 153 147 134 123 117 111 103 90 65 12 347 344 346 350 353 349 341 331 325 320 315 311 310 309 308
170 170 175 175 168 164 163 161 158 158 155 151 152 155 163 169 162 154 149 138 126 120 113 110 108 97 51 5 12 10 354 348 349 347 335 326 322 316 311 307 305 304 301
174 172 175 173 168 166 166 163 160 157 154 154 154 157 161 161 154 150 145 136 130 129 129 126 134 128 358 347 354 17 23 11 359 345 334 318 310 304 302 300 299 298 297
177 175 175 173 169 166 165 162 160 157 155 154 155 155 154 151 148 145 141 137 133 133 132 118 113 6 349 352 6 26 13 356 345 331 317 303 298 297 296 295 294 294 292
176 172 170 167 165 164 163 161 159 156 153 151 148 146 144 143 142 141 140 135 131 132 128 113 64 350 351 8 24 10 344 334 325 318 310 298 295 293 294 292 292 290 289
Height
1492 1493 1494 1494 1494 1494 1494 1494 1493 1493 1493 1493 1492 1492 1491 1490 1489 1488 1488 1487 1487 1486 1486 1486 1486 1486 1486 1487 1487 1487 1488 1489 1489 1489 1490 1490 1491 1491 1492 1493 1495 1496 1497
1490 1491 1492 1492 1492 1493 1493 1493 1493 1492 1492 1492 1492 1491 1490 1490 1489 1488 1487 1487 1486 1486 1486 1485 1485 1485 1485 1485 1486 1486 1486 1487 1487 1487 1488 1488 1489 1489 1490 1491 1491 1492 1493
1487 1489 1490 1490 1491 1491 1492 1492 1491 1491 1491 1491 1491 1490 1489 1489 1488 1487 1487 1486 1486 1485 1485 1484 1484 1484 1484 1484 1484 1484 1484 1485 1485 1485 1485 1486 1486 1487 1487 1488 1488 1489 1490
1485 1486 1487 1489 1489 1490 1490 1490 1490 1490 1490 1490 1489 1489 1488 1488 1487 1486 1486 1485 1485 1485 1484 1483 1483 1483 1483 1483 1483 1483 1483 1483 1483 1483 1483 1484 1484 1484 1485 1485 1485 1485 1486
1482 1483 1485 1486 1487 1487 1488 1488 1488 1488 1488 1488 1487 1487 1487 1486 1485 1485 1484 1484 1484 1483 1483 1483 1482 1482 1482 1481 1481 1481 1481 1481 1481 1481 1481 1482 1482 1482 1482 1482 1482 1482 1482
1479 1480 1482 1483 1484 1485 1485 1485 1485 1485 1485 1485 1485 1485 1484 1484 1484 1483 1483 1482 1482 1482 1482 1482 1481 1481 1480 1480 1480 1480 1480 1480 1480 1480 1479 1479 1479 1480 1479 1479 1479 1479 1479
1476 1477 1479 1480 1481 1482 1483 1483 1483 1483 1483 1483 1483 1482 1482 1481 1481 1481 1480 1480 1480 1480 1480 1480 1480 1480 1479 1479 1479 1478 1478 1478 1478 1478 1477 1477 1477 1477 1476 1476 1476 1476 1476
1473 1474 1476 1477 1478 1479 1480 1480 1480 1480 1480 1480 1480 1480 1479 1479 1478 1478 1478 1478 1478 1478 1478 1478 1478 1478 1477 1477 1477 1477 1477 1477 1476 1476 1476 1475 1475 1474 1474 1473 1473 1473 1473
1469 1471 1472 1474 1475 1476 1477 1477 1477 1478 1478 1478 1477 1477 1477 1476 1476 1476 1475 1475 1475 1476 1476 1476 1476 1476 1476 1476 1475 1475 1475 1475 1474 1474 1474 1473 1473 1472 1471 1470 1470 1469 1469
1464 1467 1469 1470 1471 1472 1473 1474 1474 1475 1475 1475 1475 1475 1475 1474 1474 1473 1473 1473 1473 1474 1474 1474 1474 1474 1474 1473 1473 1473 1472 1472 1472 1471 1471 1471 1470 1469 1469 1468 1467 1466 1466
1460 1463 1465 1466 1468 1469 1470 1471 1472 1472 1472 1472 1473 1473 1472 1472 1472 1471 1471 1471 1471 1472 1472 1472 1472 1471 1471 1471 1471 1470 1470 1470 1470 1469 1469 1468 1468 1467 1466 1465 1465 1464 1464
1456 1459 1461 1463 1464 1465 1466 1468 1468 1469 1470 1470 1470 1471 1470 1470 1470 1470 1469 1469 1469 1470 1470 1470 1469 1469 1469 1468 1468 1468 1468 1468 1467 1467 1466 1466 1465 1464 1464 1463 1462 1462 1461
1452 1454 1456 1458 1460 1461 1463 1464 1465 1466 1467 1467 1468 1468 1468 1468 1468 1468 1468 1468 1468 1468 1468 1468 1468 1467 1467 1466 1466 1466 1465 1465 1464 1464 1464 1463 1463 1462 1461 1460 1459 1458 1457
1447 1450 1452 1454 1456 1457 1459 1460 1461 1462 1463 1464 1465 1465 1466 1466 1466 1466 1466 1466 1466 1466 1466 1466 1466 1465 1465 1464 1464 1464 1463 1463 1462 1462 1461 1461 1460 1459 1458 1456 1455 1454 1453
1443 1445 1447 1449 1451 1453 1454 1456 1457 1458 1459 1460 1461 1462 1462 1463 1463 1464 1464 1464 1464 1464 1464 1464 1464 1464 1464 1463 1463 1462 1462 1461 1460 1460 1459 1458 1457 1456 1455 1454 1452 1451 1449
1438 1440 1442 1444 1446 1448 1449 1451 1453 1455 1456 1457 1458 1459 1459 1460 1461 1461 1462 1462 1462 1462 1462 1462 1462 1462 1462 1462 1461 1460 1460 1459 1458 1457 1456 1455 1454 1453 1452 1450 1449 1448 1446
1432 1434 1436 1439 1441 1442 1444 1446 1448 1450 1452 1453 1454 1455 1456 1457 1458 1459 1459 1460 1460 1460 1461 1461 1461 1461 1460 1460 1459 1459 1458 1457 1456 1455 1454 1453 1452 1450 1449 1447 1446 1445 1443
1426 1429 1430 1433 1435 1437 1439 1442 1444 1446 1447 1448 1450 1451 1453 1454 1455 1456 1457 1458 1458 1458 1459 1459 1459 1459 1459 1458 1457 1457 1456 1455 1454 1453 1452 1450 1449 1448 1446 1444 1443 1441 1439
1420 1422 1424 1427 1429 1432 1435 1437 1439 1442 1443 1445 1446 1448 1450 1451 1452 1453 1454 1455 1455 1456 1456 1457 1457 1457 1456 1456 1455 1454 1453 1452 1451 1450 1449 1447 1446 1445 1443 1441 1439 1437 1436
1413 1416 1418 1421 1424 1427 1430 1432 1434 1437 1439 1441 1442 1444 1446 1448 1449 1450 1451 1452 1453 1453 1454 1454 1454 1454 1453 1453 1452 1451 1450 1449 1448 1447 1445 1444 1443 1441 1439 1437 1435 1433 1431
1406 1409 1412 1415 1417 1421 1424 1427 1429 1432 1435 1437 1439 1441 1443 1445 1446 1447 1448 1449 1450 1451 1451 1451 1451 1450 1450 1449 1449 1448 1447 1446 1445 1443 1442 1440 1439 1437 1435 1433 1431 1428 1426
1399 1402 1405 1408 1411 1415 1418 1421 1424 1427 1430 1433 1435 1438 1440 1441 1443 1444 1445 1446 1447 1447 1448 1448 1447 1447 1446 1446 1445 1444 1443 1442 1441 1439 1438 1436 1434 1432 1430 1427 1425 1423 1420
1393 1395 1399 1403 1406 1410 1413 1417 1420 1423 1426 1429 1431 1434 1436 1438 1439 1441 1442 1443 1444 1444 1444 1444 1444 1443 1443 1442 1441 1440 1439 1438 1436 1435 1433 1430 1428 1426 1424 1422 1419 1417 1414
1387 1389 1393 1397 1400 1404 1407 1411 1415 1418 1421 1424 1427 1430 1432 1434 1436 1438 1439 1440 1440 1440 1441 1440 1440 1440 1439 1438 1437 1436 1435 1433 1432 1430 1428 1425 1422 1420 1417 1415 1412 1410 1407
1382 1384 1388 1391 1394 1398 1402 1406 1410 1413 1417 1420 1423 1426 1429 1431 1433 1434 1435 1436 1436 1437 1437 1436 1436 1435 1435 1434 1433 1431 1430 1428 1426 1424 1422 1419 1416 1413 1411 1408 1405 1402 1400
1377 1380 1383 1387 1390 1394 1398 1402 1406 1409 1413 1416 1419 1422 1425 1427 1429 1430 1431 1432 1432 1432 1432 1432 1432 1431 1430 1429 1428 1426 1424 1422 1420 1418 1415 1412 1409 1406 1403 1400 1397 1395 1392